Location: ?????????
(54.7630°N, 39.4991°E)
Time: 21:58:12
(UTC+00:00)

Cosmos 2056 Rocket - Pass Details

Date: 14 April 2026
Orbit: 738 x 796 km, 74.0° (Epoch: 13 May)

Event Time Altitude Azimuth Distance (km) Brightness Sun altitude
Exits shadow 23:17:10 29° 263° (W) 1,420 4.5 -21.2°
Maximum altitude 23:19:12 41° 309° (NW) 1,155 4.4 -21.0°
Drops below altitude 10° 23:24:19 10° 19° (NNE) 2,379 7.2 -20.6°
Sets 23:26:53 0° 27° (NNE) 3,312 8.4 -20.4°
